Haleyville, AL

7:01 AM CDT on October 19, 2017 (GMT -0500)
Haleyville

Weather History for K1M4 - July, 2014

Change the Weather History Date:

Tuesday, July 22, 2014

  Actual Average (KJFX) Record (KJFX)
Temperature  
Mean Temperature 76 °F -  
Max Temperature 84 °F 89 °F 98 °F (2011)
Min Temperature 68 °F 67 °F 57 °F (1971)
Cooling Degree Days 11    
Growing Degree Days 26 (Base 50)    
Moisture  
Dew Point 72 °F    
Average Humidity 91    
Maximum Humidity 100    
Minimum Humidity 67    
Precipitation  
Precipitation 0.00 in - - ()
Sea Level Pressure  
Sea Level Pressure 30.15 in    
Wind  
Wind Speed 1 mph (SE)    
Max Wind Speed 6 mph    
Max Gust Speed -    
Visibility 8 miles    
Events      
Averages and records for this station are not official NWS values.
T = Trace of Precipitation, MM = Missing Value Source: NWS Daily Summary

Daily Weather History Graph

Daily Weather History Graph

Search for Another Location

Airport or City:

Trip Planner

Search our weather history database for the weather conditions in past years. The results will help you decide how hot, cold, wet, or windy it might be!

Date:

Astronomy

Jul. 22, 2014 Rise Set
Actual Time 5:54 AM CDT 7:59 PM CDT
Civil Twilight 5:25 AM CDT 8:27 PM CDT
Nautical Twilight 4:51 AM CDT 9:01 PM CDT
Astronomical Twilight 4:14 AM CDT 9:38 PM CDT
Moon 2:25 AM CDT (7/22) 4:37 PM CDT (7/22)
Length of Visible Light 15h 01m
Length of Day
14h 04m
Waning Crescent, 16% of the Moon is Illuminated
Jul 22
Waning Crescent
Jul 26
New
Aug 3
First Quarter
Aug 10
Full
Aug 17
Last Quarter

Hourly Weather History & Observations

Time (CDT) Temp. Heat Index Dew Point Humidity Pressure Visibility Wind Dir Wind Speed Gust Speed Precip Events Conditions
12:56 AM 70.0 °F - 70.0 °F 100% 30.13 in 4.0 mi Calm Calm - N/A   Clear
1:56 AM 70.0 °F - 70.0 °F 100% 30.13 in 5.0 mi Calm Calm - N/A   Partly Cloudy
2:56 AM 70.0 °F - 70.0 °F 100% 30.13 in 6.0 mi Calm Calm - N/A   Partly Cloudy
3:56 AM 70.0 °F - 70.0 °F 100% 30.12 in 9.0 mi Calm Calm - N/A   Clear
4:56 AM 68.9 °F - 68.9 °F 100% 30.13 in 5.0 mi Calm Calm - N/A   Clear
5:56 AM 68.9 °F - 68.9 °F 100% 30.15 in 5.0 mi Calm Calm - N/A   Clear
6:56 AM 68.9 °F - 68.9 °F 100% 30.17 in 4.0 mi Calm Calm - N/A   Clear
7:56 AM 72.0 °F - 72.0 °F 100% 30.19 in 5.0 mi Calm Calm - N/A   Scattered Clouds
8:56 AM 73.9 °F - 72.9 °F 96% 30.18 in 9.0 mi Calm Calm - N/A   Partly Cloudy
9:20 AM 75.2 °F - 73.4 °F 94% 30.16 in 10.0 mi SE 4.6 mph - N/A   Mostly Cloudy
9:34 AM 75.2 °F - 73.4 °F 94% 30.15 in 10.0 mi South 4.6 mph - N/A   Scattered Clouds
9:56 AM 77.9 °F - 72.9 °F 84% 30.18 in 10.0 mi ESE 5.8 mph - N/A   Partly Cloudy
10:56 AM 81.0 °F 85.6 °F 72.9 °F 76% 30.18 in 10.0 mi ESE 5.8 mph - N/A   Scattered Clouds
12:56 PM 82.9 °F 88.5 °F 72.9 °F 71% 30.17 in 10.0 mi Calm Calm - N/A   Scattered Clouds
1:56 PM 81.9 °F 87.7 °F 73.9 °F 77% 30.17 in 10.0 mi Variable 5.8 mph - N/A   Mostly Cloudy
2:56 PM 81.9 °F 87.0 °F 72.9 °F 74% 30.16 in 10.0 mi Calm Calm - N/A   Clear
3:56 PM 83.8 °F 90.8 °F 73.9 °F 72% 30.14 in 10.0 mi Calm Calm - N/A   Partly Cloudy
5:56 PM 84.9 °F 91.4 °F 72.9 °F 67% 30.12 in 10.0 mi Calm Calm - N/A   Clear
6:56 PM 81.9 °F 87.7 °F 73.9 °F 77% 30.13 in 10.0 mi Calm Calm - N/A   Mostly Cloudy
7:20 PM 80.6 °F 86.2 °F 75.2 °F 84% 30.10 in 10.0 mi Calm Calm - N/A   Partly Cloudy
8:56 PM 74.8 °F - 73.9 °F 97% 30.16 in 10.0 mi Calm Calm - N/A   Clear
9:56 PM 72.9 °F - 72.9 °F 100% 30.17 in 6.0 mi Calm Calm - N/A   Clear
10:56 PM 72.9 °F - 72.9 °F 100% 30.16 in 6.0 mi Calm Calm - N/A   Clear
11:39 PM 71.6 °F - 71.6 °F 100% 30.13 in 2.0 mi Calm Calm - N/A   Clear
11:56 PM 72.0 °F - 72.0 °F 100% 30.17 in 4.0 mi Calm Calm - N/A   Clear